This demonstration page uses our WeatherBlox Daily Observations layout. Learn more.

Left ArrowRight Arrow

39.29038, -76.61219

Hourly Observations for July 1, 2020

Temp ( °F °C ) Dew Point ( °F °C ) Humidity (%) Winds ( mph kmh ) Pressure ( in mb ) Visibility ( mi km ) Precip ( " mm )
12:48 am 00:48 Cloudy with Light Rain 70 21 64 18 83 83 Calm 29.89 1012 2 2 0.08 2.03
12:54 am 00:54 Cloudy with Rain 70 21.1 66 18.9 87 87 S 8 13 29.88 1012 3 4 0.18 4.57
12:59 am 00:59 Mostly Cloudy with Mist and Fog 70 21.1 66 18.9 87 87 SSE 7 11 29.89 1012 6 10 0.00 0.00
1:54 am 01:54 Mostly Cloudy 69 20.6 66 18.9 90 90 W 3 6 29.87 1012 10 16 0.00 0.00
2:54 am 02:54 Mostly Cloudy 70 21.1 67 19.4 90 90 Calm 29.86 1011 10 16 0.00 0.00
3:33 am 03:33 Cloudy with Heavy Rain 70 21.1 67 19.4 90 90 W 12 19 29.89 1012 2 3 0.05 1.27
3:54 am 03:54 Cloudy with Rain 70 21.1 67 19.4 90 90 ESE 5 7 29.87 1012 3 5 0.12 3.05
4:54 am 04:54 Mostly Cloudy 70 21.1 67 19.4 90 90 Calm 29.85 1011 10 16 0.06 1.52
5:54 am 05:54 Mostly Cloudy 71 21.7 68 20 90 90 Calm 29.87 1012 10 16 0.00 0.00
6:54 am 06:54 Mostly Cloudy with Mist and Fog 71 21.7 68 20 90 90 Calm 29.86 1011 6 10 0.00 0.00
7:54 am 07:54 Mostly Cloudy 74 23.3 69 20.6 85 85 Calm 29.88 1012 10 16 0.00 0.00
8:54 am 08:54 Partly Cloudy 75 23.9 68 20 79 79 VRB 3 6 29.89 1012 10 16 0.00 0.00
9:54 am 09:54 Partly Cloudy 79 26.1 67 19.4 67 67 N 5 7 29.89 1012 10 16 0.00 0.00
10:54 am 10:54 Mostly Cloudy 82 27.8 68 20 63 63 VRB 5 7 29.89 1012 10 16 0.00 0.00
11:54 am 11:54 Mostly Cloudy 83 28.3 66 18.9 57 57 NW 6 9 29.88 1012 10 16 0.00 0.00
12:54 pm 12:54 Mostly Cloudy 85 29.4 65 18.3 51 51 VRB 3 6 29.87 1011 10 16 0.00 0.00
1:54 pm 13:54 Partly Cloudy 86 30 65 18.3 49 49 W 6 9 29.84 1011 10 16 0.00 0.00
2:54 pm 14:54 Mostly Cloudy 88 31.1 65 18.3 46 46 NNW 7 11 29.82 1010 10 16 0.00 0.00
3:15 pm 15:15 Mostly Cloudy with Thunderstorms 81 27.2 66 18.9 61 61 N 12 19 29.82 1010 10 16 0.00 0.00
3:50 pm 15:50 Mostly Cloudy with Thunderstorms 79 26 66 19 65 65 E 10 17 29.83 1010 10 16 0.00 0.00
3:54 pm 15:54 Mostly Cloudy 79 26.1 66 18.9 65 65 E 10 17 29.84 1010 10 16 0.00 0.00
4:54 pm 16:54 Mostly Cloudy with Heavy Rain 78 25.6 69 20.6 74 74 SE 8 13 29.85 1011 4 6 0.02 0.51
5:54 pm 17:54 Partly Cloudy 79 26.1 68 20 69 69 S 6 9 29.81 1010 10 16 0.03 0.76
6:54 pm 18:54 Mostly Sunny 81 27.2 67 19.4 62 62 SW 3 6 29.82 1010 10 16 0.00 0.00
7:54 pm 19:54 Partly Cloudy 79 26.1 67 19.4 67 67 SSE 6 9 29.83 1010 10 16 0.00 0.00
8:54 pm 20:54 Partly Cloudy 76 24.4 69 20.6 79 79 SW 3 6 29.85 1011 10 16 0.01 0.25
9:54 pm 21:54 Mostly Clear 76 24.4 69 20.6 79 79 E 8 13 29.87 1012 10 16 0.00 0.00
10:54 pm 22:54 Mostly Clear 73 22.8 68 20 84 84 Calm 29.88 1012 10 16 0.00 0.00
11:54 pm 23:54 Mostly Clear 73 22.8 68 20 84 84 Calm 29.87 1012 10 16 0.00 0.00

Powered by AerisWeather